This is the latest recevied weather packets stored in our database for station/object OH7GGX-14. If no packets are shown the sender has not sent any weather packets the latest 10 day(s).
| Time | Temp. | Humidity | Pressure | Rain* | Wind** | Luminosity | Snow |
|---|---|---|---|---|---|---|---|
| 1787756823 | 18.33° C | 76% | 1025.2 hPa | 0 mm | - | - | - |
| 1787756223 | 18.89° C | 70% | 1025.2 hPa | 0 mm | - | - | - |
| 1787755623 | 18.89° C | 69% | 1025.2 hPa | 0 mm | - | - | - |
| 1787755023 | 18.89° C | 69% | 1025.3 hPa | 0 mm | - | - | - |
| 1787754423 | 18.89° C | 66% | 1025.1 hPa | 0 mm | - | - | - |
| 1787753823 | 18.89° C | 67% | 1025.1 hPa | 0 mm | - | - | - |
| 1787753223 | 18.89° C | 64% | 1025 hPa | 0 mm | - | - | - |
| 1787752623 | 18.89° C | 72% | 1025 hPa | 0 mm | - | - | - |
| 1787752023 | 18.89° C | 74% | 1024.9 hPa | 0 mm | - | - | - |
| 1787751423 | 18.89° C | 72% | 1025 hPa | 0 mm | - | - | - |
| 1787750823 | 19.44° C | 67% | 1024.9 hPa | 0 mm | - | - | - |
| 1787750223 | 19.44° C | 64% | 1024.8 hPa | 0 mm | - | - | - |
| 1787749623 | 19.44° C | 65% | 1024.8 hPa | 0 mm | - | - | - |
| 1787749024 | 19.44° C | 67% | 1024.8 hPa | 0 mm | - | - | - |
| 1787748423 | 19.44° C | 68% | 1024.8 hPa | 0 mm | - | - | - |
| 1787747823 | 19.44° C | 67% | 1024.6 hPa | 0 mm | - | - | - |
| 1787747223 | 19.44° C | 70% | 1024.9 hPa | 0 mm | - | - | - |
| 1787746624 | 19.44° C | 70% | 1024.8 hPa | 0 mm | - | - | - |
| 1787746024 | 18.89° C | 78% | 1024.8 hPa | 0 mm | - | - | - |
| 1787745424 | 18.89° C | 75% | 1024.8 hPa | 0 mm | - | - | - |
| 1787744824 | 18.89° C | 75% | 1024.8 hPa | 0 mm | - | - | - |
| 1787744224 | 18.89° C | 75% | 1024.9 hPa | 0 mm | - | - | - |
| 1787743624 | 18.89° C | 76% | 1024.7 hPa | 0 mm | - | - | - |
| 1787743024 | 18.89° C | 78% | 1024.8 hPa | 0 mm | - | - | - |
| 1787742424 | 18.89° C | 76% | 1024.7 hPa | 0 mm | - | - | - |
* Rain latest hour (hover to see other rain measurements)
** Current wind speed in m/s (hover to see current wind gust speed)